Regional Weather Roundup
Issued by NWS

Home | Current Version | Previous Version | Graphics & Text | Print | Product List | Glossary On
Versions: 1 2 3 4 5 6 7 8 9 10 11 12 13 14 15 16 17 18 19 20 21 22 23 24 25 26 27 28 29 30 31 32 33 34 35 36 37 38 39 40 41 42 43 44 45 46 47 48 49 50
000
ASUS43 KMKX 230621
RWRWI

WISCONSIN REGIONAL WEATHER ROUNDUP
NATIONAL WEATHER SERVICE MILWAUKEE/SULLIVAN WI
100 AM CDT WED APR 23 2014

NOTE: "FAIR" INDICATES FEW OR NO CLOUDS BELOW 12,000 FEET WITH NO
SIGNIFICANT WEATHER AND/OR OBSTRUCTIONS TO VISIBILITY.

WIZ001-002-006>008-014>016-023>028-230700-
NORTHWEST WISCONSIN

CITY           SKY/WX    TMP DP  RH WIND       PRES   REMARKS
SUPERIOR ARPT  FAIR      31  26  82 CALM      30.13R
6HR MIN TEMP:  29; 6HR MAX TEMP:  53;

ASHLAND        FAIR      28  25  88 CALM      30.14R
HAYWARD        FAIR      27  23  85 CALM      30.12R
6HR MIN TEMP:  27; 6HR MAX TEMP:  50;

SIREN          FAIR      29  23  77 CALM      30.11R
6HR MIN TEMP:  29; 6HR MAX TEMP:  53;

RICE LAKE      FAIR      31  29  90 CALM      30.13S
6HR MIN TEMP:  31; 6HR MAX TEMP:  51;

LADYSMITH      FAIR      32  29  88 CALM      30.13S
6HR MIN TEMP:  31; 6HR MAX TEMP:  50;

EAU CLAIRE     FAIR      34  25  69 E3        30.12R
6HR MIN TEMP:  31; 6HR MAX TEMP:  54;

MENOMONIE      FAIR      35  29  77 E3        30.12R
6HR MIN TEMP:  34; 6HR MAX TEMP:  55;

NEW RICHMOND   FAIR      38  28  66 E7        30.10S WCI  33
6HR MIN TEMP:  36; 6HR MAX TEMP:  53;

OSCEOLA        FAIR      40  27  58 E6        30.13S
6HR MIN TEMP:  33; 6HR MAX TEMP:  54;

$$

WIZ003>005-009-010-017-018-230700-
NORTH CENTRAL WISCONSIN

CITY           SKY/WX    TMP DP  RH WIND       PRES   REMARKS
WOODRUFF       FAIR      25  12  58 CALM      30.11S
6HR MIN TEMP:  24; 6HR MAX TEMP:  44;

RHINELANDER    FAIR      26  22  84 CALM      30.12R
6HR MIN TEMP:  23; 6HR MAX TEMP:  42;

EAGLE RIVER    FAIR      25  25 100 CALM      30.11R
6HR MIN TEMP:  25; 6HR MAX TEMP:  41;

LAND O LAKES   FAIR      24  23  96 CALM      30.12R
6HR MIN TEMP:  24; 6HR MAX TEMP:  41;

PHILLIPS       FAIR      28  26  92 CALM      30.11S
6HR MIN TEMP:  27; 6HR MAX TEMP:  45;

TOMAHAWK       FAIR      25  23  91 CALM      30.12R
6HR MIN TEMP:  24; 6HR MAX TEMP:  44;

MEDFORD        FAIR      30  28  90 CALM      30.12R
6HR MIN TEMP:  30; 6HR MAX TEMP:  46;

MERRILL        FAIR      26  24  93 CALM      30.12S
6HR MIN TEMP:  26; 6HR MAX TEMP:  45;

$$

WIZ029-030-035-036-043>047-230700-
CENTRAL WISCONSIN

CITY           SKY/WX    TMP DP  RH WIND       PRES   REMARKS
WAUSAU         FAIR      33  26  75 CALM      30.11R
6HR MIN TEMP:  32; 6HR MAX TEMP:  47;

MOSINEE        FAIR      32  27  80 CALM      30.13R
MARSHFIELD     FAIR      36  25  64 CALM      30.12R
6HR MIN TEMP:  36; 6HR MAX TEMP:  49;

STEVENS POINT  FAIR      28  23  83 CALM      30.13S
6HR MIN TEMP:  27; 6HR MAX TEMP:  47;

WAUPACA        FAIR      34  28  80 CALM      30.13S
WAUTOMA        FAIR      32  28  85 CALM      30.13R
6HR MIN TEMP:  31; 6HR MAX TEMP:  52;

WISC RAPIDS    FAIR      33  25  72 CALM      30.13S
6HR MIN TEMP:  32; 6HR MAX TEMP:  51;

CAMP DOUGLAS   FAIR      30  29  95 CALM      30.13R
6HR MIN TEMP:  29; 6HR MAX TEMP:  53;

$$

WIZ011>013-019>022-031-037>040-048>050-230700-
NORTHEAST WISCONSIN

CITY           SKY/WX    TMP DP  RH WIND       PRES   REMARKS
ANTIGO         FAIR      30  27  88 CALM      30.11S
6HR MIN TEMP:  29; 6HR MAX TEMP:  41;

STURGEON BAY   FAIR      32  25  74 N5        30.13R WCI  27
6HR MIN TEMP:  30; 6HR MAX TEMP:  41;

GREEN BAY      FAIR      35  27  72 N3        30.13R
6HR MIN TEMP:  34; 6HR MAX TEMP:  47;

MANITOWOC      FAIR      34  28  79 N5        30.12R WCI  30
6HR MIN TEMP:  34; 6HR MAX TEMP:  46;

APPLETON       FAIR      34  27  75 NE8       30.12S WCI  27
CLINTONVILLE   FAIR      34  28  80 CALM      30.13R
OSHKOSH        FAIR      35  26  69 N8        30.12R WCI  29
6HR MIN TEMP:  34; 6HR MAX TEMP:  49;

$$

WIZ032>034-041-042-053>061-230700-
SOUTHWEST WISCONSIN

CITY           SKY/WX    TMP DP  RH WIND       PRES   REMARKS
LA CROSSE      FAIR      43  28  55 SE5       30.12R
6HR MIN TEMP:  40; 6HR MAX TEMP:  56;

SPARTA         FAIR      31  25  77 CALM      30.14R
6HR MIN TEMP:  30; 6HR MAX TEMP:  55;

VIROQUA        FAIR      38  27  64 E8        30.10S WCI  32
6HR MIN TEMP:  37; 6HR MAX TEMP:  52;

BOSCOBEL       FAIR      39  30  70 NE7       30.11S WCI  34
6HR MIN TEMP:  36; 6HR MAX TEMP:  58;

PRAIRIE DU CHI FAIR      38  31  74 CALM      30.10S
6HR MIN TEMP:  38; 6HR MAX TEMP:  57;

PLATTEVILLE    FAIR      42  27  53 NE9       30.11R
6HR MIN TEMP:  41; 6HR MAX TEMP:  56;

$$

WIZ056-057-062-063-064-067-068-230700-
SOUTH CENTRAL WISCONSIN

CITY           SKY/WX    TMP DP  RH WIND       PRES   REMARKS
BARABOO/DELLS  FAIR      36  27  70 E5        30.12S WCI  32
6HR MIN TEMP:  35; 6HR MAX TEMP:  53;

LONE ROCK      FAIR      41  27  57 S3        30.12R
6HR MIN TEMP:  41; 6HR MAX TEMP:  57;

WATERTOWN      FAIR      37  28  72 CALM      30.11R
6HR MIN TEMP:  36; 6HR MAX TEMP:  53;

MADISON        FAIR      37  27  67 NE7       30.12S WCI  32
6HR MIN TEMP:  37; 6HR MAX TEMP:  53;

MIDDLETON      FAIR      37  28  70 CALM      30.12S
6HR MIN TEMP:  35; 6HR MAX TEMP:  55;

MONROE         FAIR      38  29  69 NE5       30.10S WCI  35
6HR MIN TEMP:  38; 6HR MAX TEMP:  54;

JANESVILLE     FAIR      36  30  80 CALM      30.11R
$$

WIZ051-052-058>065-066-070>072-230700-
SOUTHEAST WISCONSIN

CITY           SKY/WX    TMP DP  RH WIND       PRES   REMARKS
MILWAUKEE      FAIR      35  29  78 NE12G18   30.12S WCI  27
6HR MIN TEMP:  35; 6HR MAX TEMP:  43;

WAUKESHA       FAIR      32  28  86 CALM      30.13R
MILWAUKEE/TIMM FAIR      34  28  80 NE5       30.12S WCI  30
RACINE         FAIR      35  29  78 NE12      30.13R WCI  27
6HR MIN TEMP:  34; 6HR MAX TEMP:  42;

BURLINGTON     FAIR      32  28  85 E5        30.12R WCI  28
6HR MIN TEMP:  31; 6HR MAX TEMP:  52;

KENOSHA        FAIR      33  28  81 NE6       30.11R WCI  28
6HR MIN TEMP:  32; 6HR MAX TEMP:  42;

FOND DU LAC    FAIR      37  29  72 N3        30.12R
6HR MIN TEMP:  36; 6HR MAX TEMP:  49;

SHEBOYGAN      FAIR      31  29  92 CALM      30.12R
6HR MIN TEMP:  31; 6HR MAX TEMP:  47;

WEST BEND      FAIR      32  28  86 E3        30.11R
JUNEAU         FAIR      38  27  64 N5        30.12R WCI  34
6HR MIN TEMP:  38; 6HR MAX TEMP:  50;

$$

LSZ147-162-230700-
LAKE SUPERIOR

STATION/POSITION TIME  TEMP    WIND        PRES    WAVE
                       AIR SEA DIR/SP/G            HT/PER
                 (UTC) (F)     (DEG/KT/KT) (MB)    (FT/S)
DEVILS ISLAND    0600   38     150/  6/  7 1021.4R
PORT WING        0500   29     330/  4/  4 1020.0
SAXON HARBOR     0540           CALM  /  2 1020.0R
$$

LMZ867-665-643>646-230700-
LAKE MICHIGAN

STATION/POSITION TIME  TEMP    WIND        PRES    WAVE
                       AIR SEA DIR/SP/G            HT/PER
                 (UTC) (F)     (DEG/KT/KT) (MB)    (FT/S)
NORTHPORT PIER   0500   33     310/  9/ 12 1019.3R
SISTER BAY       0509   34      10/ 10/ 12   N/A
KEWAUNEE LAKESHO 0600   32     320/  3/  5 1020.6R
SHEBOYGAN LAKESH 0600   37      20/  7/  9 1020.8R
PORT WASHINGTON  0540   37      20/  4/  9 1020.7R
MILWAUKEE LAKESH 0600   36      20/ 12/ 14   N/A
KENOSHA   LAKESH 0600   37      30/ 14/ 16   N/A
$$

TC  - TEMPERATURE IN CELSIUS
VSB - VISIBILITY IN STATUTE MILES
WCI - WIND CHILL INDEX
HX  - HEAT INDEX




USA.gov is the U.S. government's official web portal to all federal, state and local government web resources and services.